Location: Ahausen
(50.4985°N, 8.2722°E)
Time: 15:46:48
(UTC+00:00)

Cosmos 2195 Rocket - Pass Details

Date: 18 September 2020
Orbit: 948 x 994 km, 82.9° (Epoch: 22 October)

Event Time Altitude Azimuth Distance (km) Brightness Sun altitude
Rises 19:51:10 0° 349° (N) 3,706 8.2 -21.6°
Reaches altitude 10° 19:53:43 10° 350° (N) 2,748 7.4 -22.0°
Maximum altitude 20:00:01 86° 263° (W) 983 4.4 -22.8°
Enters shadow 20:03:08 32° 175° (S) 1,599 5.3 -23.2°
